This is the latest recevied weather packets stored in our database for station/object N0HOT. If no packets are shown the sender has not sent any weather packets the latest 10 day(s).
| Time | Temp. | Humidity | Pressure | Rain* | Wind** | Luminosity | Snow |
|---|---|---|---|---|---|---|---|
| 1777326215 | 18.33° C | 82% | 996.5 hPa | 0 mm | - | 439 W/m² | - |
| 1777325913 | 18.33° C | 82% | 996.5 hPa | 0 mm | - | 231 W/m² | - |
| 1777325611 | 18.33° C | 82% | 997 hPa | 0 mm | - | 136 W/m² | - |
| 1777325308 | 17.78° C | 82% | 996.5 hPa | 0 mm | - | 157 W/m² | - |
| 1777325007 | 17.78° C | 84% | 997 hPa | 0 mm | - | 468 W/m² | - |
| 1777324702 | 17.78° C | 84% | 997 hPa | 0 mm | - | 321 W/m² | - |
| 1777324400 | 17.78° C | 84% | 997 hPa | 0 mm | - | 167 W/m² | - |
| 1777324098 | 18.33° C | 84% | 997 hPa | 0 mm | - | 169 W/m² | - |
| 1777323795 | 18.33° C | 83% | 996.5 hPa | 0 mm | - | 232 W/m² | - |
| 1777323492 | 18.89° C | 83% | 996.5 hPa | 8.89 mm | - | 250 W/m² | - |
| 1777323189 | 19.44° C | 81% | 996.5 hPa | 18.03 mm | - | 103 W/m² | - |
| 1777322886 | 19.44° C | 77% | 997.3 hPa | 8.89 mm | - | 29 W/m² | - |
| 1777322585 | 19.44° C | 73% | 997.3 hPa | 0 mm | - | 30 W/m² | - |
| 1777322282 | 19.44° C | 71% | 997.6 hPa | 0 mm | - | 19 W/m² | - |
| 1777321979 | 18.89° C | 71% | 997.6 hPa | 0 mm | - | 95 W/m² | - |
| 1777321676 | 18.89° C | 70% | 997.6 hPa | 0 mm | - | 139 W/m² | - |
| 1777321372 | 18.89° C | 72% | 997.6 hPa | 0 mm | - | 291 W/m² | - |
| 1777321069 | 18.89° C | 73% | 998 hPa | 0 mm | - | 152 W/m² | - |
| 1777320767 | 18.89° C | 73% | 998 hPa | 0 mm | - | 123 W/m² | - |
| 1777320463 | 18.89° C | 73% | 998 hPa | 0 mm | - | 55 W/m² | - |
| 1777320161 | 18.89° C | 73% | 998 hPa | 0 mm | - | 101 W/m² | - |
| 1777319858 | 18.89° C | 74% | 998 hPa | 0 mm | - | 183 W/m² | - |
| 1777319555 | 18.89° C | 74% | 998 hPa | 0 mm | - | 161 W/m² | - |
| 1777319252 | 18.33° C | 72% | 998.3 hPa | 0 mm | - | 148 W/m² | - |
| 1777318949 | 17.78° C | 72% | 998.3 hPa | 0 mm | - | 246 W/m² | - |
* Rain latest hour (hover to see other rain measurements)
** Current wind speed in m/s (hover to see current wind gust speed)